Weather History for False Pass, AK

Change the Weather History Date:

Thursday, November 1, 2012

  Actual Average (PACD) Record (PACD)
Temperature  
Mean Temperature 30 °F 37 °F  
Max Temperature 36 °F 42 °F 52 °F (1994)
Min Temperature 26 °F 32 °F 20 °F (2004)
Degree Days  
Heating Degree Days 34 28  
Month to date heating degree days 28  
Since 1 July heating degree days 2141  
Cooling Degree Days 0    
Month to date cooling degree days  
Year to date cooling degree days  
Moisture  
Dew Point 23 °F    
Average Humidity 74    
Maximum Humidity 93    
Minimum Humidity 56    
Precipitation  
Precipitation 0.00 in 0.16 in 1.06 in (2000)
Month to date precipitation 0.16  
Year to date precipitation 32.39  
Snow  
Snow 0.00 in 0.20 in 3.00 in (1981)
Month to date snowfall 0.2  
Since 1 July snowfall 2.6  
Since 1 September snowfall 2.6  
Snow Depth -    
Sea Level Pressure  
Sea Level Pressure 29.71 in    
Wind  
Wind Speed 24 mph (WNW)    
Max Wind Speed 34 mph    
Max Gust Speed 47 mph    
Visibility 6 miles    
Events Rain , Snow    
T = Trace of Precipitation, MM = Missing Value Source: NWS Daily Summary

Daily Weather History Graph

Daily Weather History Graph

Search for Another Location

Airport:

Trip Planner

Search our weather history database for the weather conditions in past years. The results will help you decide how hot, cold, wet, or windy it might be!

Date:

Astronomy

Nov. 01, 2012 Rise Set
Actual Time 8:58 AM HADT 6:15 PM HADT
Civil Twilight 8:19 AM HADT 6:53 PM HADT
Nautical Twilight 7:37 AM HADT 7:36 PM HADT
Astronomical Twilight 6:55 AM HADT 8:18 PM HADT
Moon 7:59 PM HADT (11/1) 12:03 PM HADT (11/1)
Length of Visible Light 10h 33m
Length of Day
9h 16m
Waning Gibbous, 92% of the Moon is Illuminated
Nov 1
Waning Gibbous
Nov 6
Last Quarter
Nov 13
New
Nov 20
First Quarter
Nov 28
Full

Hourly Weather History & Observations

Time (HADT) Temp. Windchill Dew Point Humidity Pressure Visibility Wind Dir Wind Speed Gust Speed Precip Events Conditions
12:01 AM 28.4 °F 14.7 °F 19.4 °F 69% 29.78 in 3.0 mi WNW 21.9 mph 39.1 mph 0.00 in Snow Light Snow
12:19 AM 28.9 °F 13.5 °F 18.0 °F 64% 30.05 in 3.0 mi West 29.9 mph 44.9 mph 0.00 in Snow Light Snow
12:32 AM 30.2 °F 14.3 °F 21.2 °F 69% 29.76 in 5.0 mi West 34.5 mph 46.0 mph 0.00 in   Scattered Clouds
1:01 AM 30.0 °F 16.3 °F 19.0 °F 64% 30.04 in 6.0 mi WNW 24.2 mph 42.6 mph 0.00 in Snow Light Snow
2:01 AM 30.0 °F 15.7 °F 19.0 °F 64% 30.02 in 10.0 mi WNW 26.5 mph 46.0 mph 0.00 in Snow Light Snow
2:24 AM 28.4 °F 13.8 °F 23.0 °F 80% 29.73 in 1.8 mi WNW 25.3 mph 36.8 mph 0.00 in Snow Light Snow
2:35 AM 28.4 °F 12.7 °F 21.2 °F 74% 29.73 in 2.0 mi West 29.9 mph 46.0 mph 0.00 in Snow Light Snow
2:38 AM 28.4 °F 13.0 °F 23.0 °F 80% 29.73 in 1.0 mi WNW 28.8 mph 46.0 mph 0.00 in Snow Light Snow
2:41 AM 28.4 °F 13.0 °F 23.0 °F 80% 29.73 in 0.8 mi WNW 28.8 mph 46.0 mph 0.00 in Snow Light Snow
2:49 AM 28.4 °F 15.4 °F 24.8 °F 86% 29.73 in 0.8 mi WNW 19.6 mph 41.4 mph 0.00 in Snow Light Snow
2:54 AM 26.6 °F 11.1 °F 24.8 °F 93% 29.73 in 1.0 mi WNW 26.5 mph 38.0 mph 0.00 in Snow Light Snow
2:56 AM 28.4 °F 14.1 °F 23.0 °F 80% 29.73 in 1.2 mi WNW 24.2 mph 38.0 mph 0.00 in Snow Light Snow
3:01 AM 28.4 °F 13.0 °F 24.8 °F 86% 29.73 in 1.0 mi West 28.8 mph 43.7 mph 0.00 in Snow Light Snow
3:08 AM 28.4 °F 12.0 °F 23.0 °F 80% 29.71 in 0.8 mi West 33.4 mph 47.2 mph 0.00 in Snow Light Snow
3:17 AM 28.0 °F 13.0 °F 23.0 °F 81% 30.00 in 0.8 mi WNW 26.5 mph 47.2 mph 0.00 in Snow Light Snow
3:20 AM 28.4 °F 13.0 °F 21.2 °F 74% 29.71 in 1.2 mi WNW 28.8 mph 38.0 mph 0.00 in Snow Light Snow
3:27 AM 28.4 °F 13.3 °F 24.8 °F 86% 29.72 in 0.8 mi WNW 27.6 mph 43.7 mph 0.00 in Snow Light Snow
3:33 AM 28.4 °F 13.5 °F 24.8 °F 86% 29.71 in 0.8 mi WNW 26.5 mph 43.7 mph 0.00 in Snow Light Snow
3:37 AM 28.4 °F 15.1 °F 23.0 °F 80% 29.72 in 1.5 mi WNW 20.7 mph 40.3 mph 0.00 in Snow Light Snow
3:39 AM 28.4 °F 15.8 °F 23.0 °F 80% 29.72 in 3.0 mi WNW 18.4 mph 40.3 mph 0.00 in Snow Light Snow
4:01 AM 28.4 °F 14.1 °F 23.0 °F 80% 29.71 in 1.8 mi WNW 24.2 mph 41.4 mph 0.00 in Snow Light Snow
4:11 AM 28.4 °F 14.4 °F 23.0 °F 80% 29.69 in 1.8 mi WNW 23.0 mph 42.6 mph 0.00 in Snow Light Snow
4:18 AM 28.4 °F 14.1 °F 21.2 °F 74% 29.70 in 8.0 mi WNW 24.2 mph 42.6 mph 0.00 in Snow Light Snow
4:25 AM 28.4 °F 13.5 °F 21.2 °F 74% 29.69 in 8.0 mi WNW 26.5 mph 43.7 mph 0.00 in   Overcast
4:38 AM 28.4 °F 15.4 °F 23.0 °F 80% 29.70 in 2.5 mi WNW 19.6 mph 40.3 mph 0.00 in Snow Light Snow
4:52 AM 28.4 °F 13.3 °F 21.2 °F 74% 29.69 in 5.0 mi WNW 27.6 mph 40.3 mph 0.00 in Snow Light Snow
5:01 AM 28.9 °F 14.8 °F 23.0 °F 78% 29.98 in 9.0 mi NW 24.2 mph 41.4 mph 0.00 in Snow Light Snow
5:08 AM 28.4 °F 14.7 °F 21.2 °F 74% 29.69 in 9.0 mi NW 21.9 mph 42.6 mph 0.00 in Snow Light Snow
6:01 AM 28.0 °F 16.1 °F 21.0 °F 75% 29.98 in 7.0 mi WNW 16.1 mph 46.0 mph 0.00 in Snow Light Snow
6:10 AM 28.4 °F 15.1 °F 19.4 °F 69% 29.69 in 7.0 mi WNW 20.7 mph 32.2 mph 0.00 in Snow Light Snow
6:35 AM 28.4 °F 13.8 °F 21.2 °F 74% 29.69 in 6.0 mi West 25.3 mph 35.7 mph 0.00 in Snow Light Snow
7:01 AM 28.0 °F 14.6 °F 21.0 °F 75% 29.97 in 10.0 mi West 20.7 mph 32.2 mph 0.00 in Snow Light Snow
8:01 AM 30.0 °F 17.9 °F 18.0 °F 61% 29.96 in 9.0 mi WNW 18.4 mph 25.3 mph 0.00 in Snow Light Snow
9:01 AM 30.0 °F 17.5 °F 16.0 °F 56% 29.96 in 10.0 mi WNW 19.6 mph 27.6 mph 0.00 in   Mostly Cloudy
10:01 AM 30.0 °F 17.5 °F 16.0 °F 56% 29.96 in 10.0 mi NW 19.6 mph 27.6 mph N/A   Overcast
11:01 AM 30.9 °F 18.7 °F 25.0 °F 79% 29.96 in 6.0 mi NNW 19.6 mph 27.6 mph 0.00 in Snow Light Snow
11:09 AM 28.4 °F 15.1 °F 26.6 °F 93% 29.68 in 1.8 mi NW 20.7 mph 29.9 mph 0.00 in Snow Light Snow
11:20 AM 28.4 °F 17.0 °F 23.0 °F 80% 29.68 in 3.0 mi WNW 15.0 mph 24.2 mph 0.00 in Snow Light Snow
11:35 AM 28.4 °F 18.5 °F 23.0 °F 80% 29.67 in 2.0 mi WNW 11.5 mph 26.5 mph 0.00 in Snow Light Snow
11:41 AM 30.2 °F 18.5 °F 23.0 °F 75% 29.67 in 7.0 mi NW 17.3 mph 21.9 mph 0.00 in Snow Light Snow
12:01 PM 30.9 °F 18.4 °F 24.1 °F 76% 29.96 in 10.0 mi NW 20.7 mph 28.8 mph 0.00 in   Overcast
12:24 PM 30.2 °F 19.3 °F 23.0 °F 75% 29.66 in 9.0 mi WNW 15.0 mph 28.8 mph 0.00 in   Overcast
1:01 PM 30.2 °F 17.4 °F 23.0 °F 75% 29.65 in 3.0 mi WNW 20.7 mph 34.5 mph 0.00 in Snow Light Snow
1:12 PM 30.2 °F 19.8 °F 23.0 °F 75% 29.64 in 9.0 mi WNW 13.8 mph 24.2 mph 0.00 in   Overcast
1:39 PM 32.0 °F 21.6 °F 21.2 °F 64% 29.63 in 10.0 mi WNW 15.0 mph 29.9 mph 0.00 in   Overcast
1:54 PM 30.2 °F 16.5 °F 24.8 °F 80% 29.64 in 1.8 mi NW 24.2 mph 38.0 mph 0.00 in Snow Light Snow
2:01 PM 30.2 °F 17.8 °F 24.8 °F 80% 29.63 in 2.0 mi NW 19.6 mph 38.0 mph 0.00 in Snow Light Snow
2:09 PM 30.2 °F 18.5 °F 24.8 °F 80% 29.63 in 9.0 mi WNW 17.3 mph 27.6 mph 0.00 in Snow Light Snow
2:16 PM 32.0 °F 19.8 °F 24.8 °F 75% 29.63 in 9.0 mi NW 20.7 mph 28.8 mph 0.00 in   Overcast
2:38 PM 32.0 °F 19.5 °F 24.8 °F 75% 29.62 in 10.0 mi NNW 21.9 mph 32.2 mph 0.00 in   Overcast
3:01 PM 30.2 °F 18.1 °F 24.8 °F 80% 29.62 in 7.0 mi WNW 18.4 mph 38.0 mph N/A Snow Light Snow
3:38 PM 30.2 °F 17.1 °F 24.8 °F 80% 29.61 in 3.0 mi NW 21.9 mph 35.7 mph N/A Snow Light Snow
4:21 PM 30.2 °F 17.1 °F 26.6 °F 86% 29.61 in 1.8 mi NW 21.9 mph 34.5 mph N/A Snow Light Snow
4:32 PM 30.2 °F 15.9 °F 23.0 °F 75% 29.60 in 3.0 mi NW 26.5 mph 34.5 mph N/A Snow Light Snow
4:47 PM 32.0 °F 19.2 °F 21.2 °F 64% 29.59 in 9.0 mi NW 23.0 mph 35.7 mph N/A   Overcast
4:54 PM 32.0 °F 18.4 °F 21.2 °F 64% 29.59 in 10.0 mi NW 26.5 mph 38.0 mph N/A   Overcast
5:01 PM 32.0 °F 18.1 °F 21.0 °F 64% 29.60 in 10.0 mi NW 27.6 mph 36.8 mph N/A   Overcast
6:01 PM 32.0 °F 19.2 °F 21.0 °F 64% 29.60 in 10.0 mi NW 23.0 mph 32.2 mph 0.00 in   Overcast
7:01 PM 32.0 °F 18.9 °F 24.1 °F 73% 29.59 in 9.0 mi NW 24.2 mph 39.1 mph 0.00 in Snow Light Snow
8:01 PM 33.1 °F 19.6 °F 23.0 °F 66% 29.59 in 9.0 mi NW 27.6 mph 40.3 mph 0.00 in   Overcast
9:01 PM 33.8 °F 20.5 °F 24.8 °F 70% 29.58 in 10.0 mi NW 27.6 mph 38.0 mph 0.00 in Rain Light Rain
9:14 PM 33.1 °F 19.6 °F 24.1 °F 70% 29.57 in 10.0 mi WNW 27.6 mph 39.1 mph 0.00 in Rain Light Rain
9:26 PM 33.8 °F 22.2 °F 24.8 °F 70% 29.56 in 10.0 mi WNW 20.7 mph 35.7 mph 0.00 in Rain Light Rain
9:56 PM 33.8 °F 21.3 °F 24.8 °F 70% 29.57 in 10.0 mi NW 24.2 mph 42.6 mph 0.00 in Rain Light Rain
10:01 PM 34.0 °F 20.8 °F 25.0 °F 70% 29.56 in 10.0 mi NW 27.6 mph 38.0 mph 0.00 in Rain Light Rain
10:31 PM 35.6 °F 22.3 °F 24.8 °F 65% 29.56 in 10.0 mi NW 31.1 mph 39.1 mph 0.00 in Rain Light Rain
11:01 PM 35.6 °F 23.0 °F 24.8 °F 65% 29.56 in 10.0 mi WNW 27.6 mph 42.6 mph 0.00 in Rain Light Rain
11:10 PM 35.6 °F 23.0 °F 26.6 °F 70% 29.55 in 10.0 mi NW 27.6 mph 34.5 mph 0.00 in Rain Light Rain
11:49 PM 35.6 °F 24.2 °F 26.6 °F 70% 29.55 in 10.0 mi WNW 21.9 mph 47.2 mph 0.00 in Rain Light Rain